STARLINK-32747, 62600

Orbit data source: Space-Track

STARLINK-32747, 62600 is a payload satellite owned by SpaceX/Seattle (US) in LEO that was launched on Mon, 13 Jan 2025 UTC via an FALCON 9 launch vehicle from the Air Force Eastern Test Range (AFETR). Payload-class satellites include a variety of spacecraft equipped with specific instruments for various scientific and technological missions. These include communications satellites like Starlink; space stations such as the ISS; scientific satellites like the Hubble; Earth observation satellites from companies like Planet Labs, Umbra, and HawkEye 360; GPS; miniature CubeSats for education and research; and military/defense satellites.

Loading next visibility...
Identifier
62600, 2025-008P
Orbit
LEO
Country
Flag of USUS
Related business
Manufacturer
SpaceX/Seattle
Mission
Operational Commercial Communications
Bus & Motor
STARLINK V2M, Unknown motor
Mass
730 kg wet, ~700 kg dry
Launch date (UTC)
2025-01-13 (8 months ago)
Launch vehicle
FALCON 9
Launch site
Air Force Eastern Test Range (AFETR)
Object type
Payload
Rocket body
Debris
Shape & HBR
Box + 2 Pan, 14.5 m
Radar Cross Section
33.884 m², Large (>1 m²)

Expand to show TLE details & history
Last TLE update: 21 hours ago

TLE from 21 hours ago
0 STARLINK-32747
1 62600U 25008P   25242.12733534  .00023480  00000-0  85978-3 0  9999
2 62600  43.0024 280.0991 0000734 274.3583  85.7185 15.27590383 36268
Epoch: 2025-08-30T03:03Z
TLE epoch observation values (Epoch: 2025-08-30T03:03:21.773Z)
Latitude
Longitude
-104.30771°
Altitude
482.756 km
Speed
7.626 km/s
True Right ascension
18h 40m 23s
True Declination
0° 00' 00"
Sunlit
Object was in full shadow at epoch
Visualization orbit readout
Latitude
Unknown
Longitude
Unknown
Altitude
Unknown
Speed
Unknown
Apparent Right ascension
Unknown
Apparent Declination
Unknown
Sunlit
N/A
Visualization observer readout
Local Sidereal Time
16:04:00
Azimuth
Unknown
Elevation
Unknown
Doppler factor
Unknown
Orbital elements
Apogee altitude
485.467 km
Perigee altitude
484.459 km
Semi-major axis
6,863.1 km
Eccentricity
0.00007
Inclination
43.0024°
RAAN
280.0991°
Arg. of periapsis
274.3583°
True anomaly
85.72689°
Mean anomaly
85.7185°
Eccentric anomaly
85.72269°
Mean motion
3.81736 °/min
Orbital period
94.31 mins
BSTAR
0.00085978
Loading maneuver chart data...
Computing Atmospheric mass density...
Loading historical data...
Loading historical data...
Loading historical data...
Loading historical data...
Loading historical data...
Loading historical data...
Loading historical data...

Documentation

Showing up to 5 results
|